sat.trackr.live / text

‹ back to catalog

STARLINK-3562

NORAD 51861 · 2022-022K

PAYLOAD ACTIVE UNKNOWN

§ Identity

Operator
Country
US
Launch date
2022-03-03
Launch site
AFETR
Launch vehicle
Mass (kg)
RCS (m²)

Purposes: comms

External: N2YO · Heavens-Above · Gunter

§ Orbital elements

Epoch: 2026-05-24T22:56:45.921120Z

Period
95.44 min
Inclination
53.2155°
Eccentricity
0.0001323
Mean motion
15.08837897 rev/d
Perigee alt
538.8 km
Apogee alt
540.7 km
Semi-major
6,917.9 km
B*
2.5729e-5
RAAN
26.7490°
Arg perigee
88.9427°
Mean anomaly
271.1716°
Rev number
23,454

§ Raw data

STARLINK-35621 51861U 22022K   26144.95608705  .00000122  00000+0  25729-4 0  99992 51861  53.2155  26.7490 0001323  88.9427 271.1716 15.08837897234548

JSON: /api/v1/satellites/51861 · /tle

For live sub-satellite position, see the globe view (requires WebGL).

§ Visibility from observer

Set your observer location to see the next 7 days of passes ≥ 10°. The values pass through the URL so the page stays shareable.

No JS? Fill the form by hand. The geolocation button needs JavaScript.